TimeEST,TemperatureF,Dew PointF,Humidity,Sea Level PressureIn,VisibilityMPH,Wind Direction,Wind SpeedMPH,Gust SpeedMPH,PrecipitationIn,Events,Conditions,WindDirDegrees,DateUTC
12:49 AM,33.8,26.6,75,30.03,10.0,West,10.4,-,N/A,,Mostly Cloudy,270,2013-02-12 05:49:00
12:56 AM,34.0,27.0,75,30.06,10.0,West,10.4,-,N/A,,Overcast,280,2013-02-12 05:56:00
1:56 AM,32.0,26.1,79,30.07,10.0,West,16.1,-,N/A,,Scattered Clouds,270,2013-02-12 06:56:00
2:50 AM,32.0,26.6,80,30.06,10.0,West,16.1,-,N/A,,Mostly Cloudy,260,2013-02-12 07:50:00
2:56 AM,32.0,26.1,79,30.09,10.0,West,15.0,-,N/A,,Mostly Cloudy,270,2013-02-12 07:56:00
3:56 AM,30.9,25.0,79,30.09,10.0,West,13.8,-,N/A,,Overcast,270,2013-02-12 08:56:00
4:34 AM,30.2,24.8,80,30.07,10.0,WNW,13.8,-,N/A,,Scattered Clouds,290,2013-02-12 09:34:00
4:56 AM,30.0,24.1,79,30.10,10.0,West,8.1,-,N/A,,Scattered Clouds,280,2013-02-12 09:56:00
5:06 AM,30.2,24.8,80,30.07,10.0,WNW,8.1,-,N/A,,Mostly Cloudy,290,2013-02-12 10:06:00
5:56 AM,30.0,23.0,75,30.11,10.0,WNW,12.7,-,N/A,,Mostly Cloudy,300,2013-02-12 10:56:00
6:56 AM,30.0,21.9,72,30.12,10.0,WNW,11.5,-,N/A,,Overcast,300,2013-02-12 11:56:00
7:56 AM,30.0,24.1,79,30.13,9.0,West,6.9,-,N/A,,Overcast,260,2013-02-12 12:56:00
8:56 AM,30.0,23.0,75,30.14,10.0,West,9.2,-,N/A,,Mostly Cloudy,260,2013-02-12 13:56:00
9:37 AM,30.2,23.0,75,30.12,10.0,West,6.9,-,N/A,,Scattered Clouds,280,2013-02-12 14:37:00
9:56 AM,32.0,24.1,73,30.15,10.0,West,8.1,-,N/A,,Scattered Clouds,260,2013-02-12 14:56:00
10:56 AM,33.1,24.1,70,30.13,10.0,West,5.8,-,N/A,,Partly Cloudy,270,2013-02-12 15:56:00
11:56 AM,37.0,25.0,62,30.12,10.0,WSW,8.1,-,N/A,,Partly Cloudy,240,2013-02-12 16:56:00
12:56 PM,41.0,26.1,55,30.05,10.0,Calm,Calm,-,N/A,,Partly Cloudy,0,2013-02-12 17:56:00
1:56 PM,43.0,26.1,51,30.04,10.0,SW,6.9,-,N/A,,Partly Cloudy,220,2013-02-12 18:56:00
2:56 PM,44.1,25.0,47,30.04,10.0,WSW,9.2,-,N/A,,Scattered Clouds,250,2013-02-12 19:56:00
3:56 PM,45.0,26.1,48,30.03,10.0,SW,12.7,-,N/A,,Mostly Cloudy,220,2013-02-12 20:56:00
4:56 PM,45.0,26.1,48,30.03,10.0,SW,12.7,-,N/A,,Scattered Clouds,230,2013-02-12 21:56:00
5:56 PM,41.0,26.1,55,30.00,10.0,West,6.9,-,N/A,,Mostly Cloudy,270,2013-02-12 22:56:00
6:56 PM,36.0,26.1,67,29.99,10.0,WSW,8.1,-,N/A,,Mostly Cloudy,250,2013-02-12 23:56:00
7:56 PM,37.0,26.1,65,29.98,10.0,WNW,3.5,-,N/A,,Mostly Cloudy,300,2013-02-13 00:56:00
8:56 PM,36.0,26.1,67,29.97,10.0,Calm,Calm,-,N/A,,Scattered Clouds,0,2013-02-13 01:56:00
9:56 PM,35.1,26.1,70,29.96,10.0,Calm,Calm,-,N/A,,Scattered Clouds,0,2013-02-13 02:56:00
10:56 PM,32.0,27.0,82,29.96,9.0,North,5.8,-,N/A,,Scattered Clouds,350,2013-02-13 03:56:00
11:56 PM,30.0,28.0,92,29.96,6.0,North,5.8,-,N/A,,Partly Cloudy,350,2013-02-13 04:56:00